This is the latest recevied weather packets stored in our database for station/object HB9FHL-13. If no packets are shown the sender has not sent any weather packets the latest 1 day(s).
| Time | Temp. | Humidity | Pressure | Rain* | Wind** | Luminosity | Snow |
|---|---|---|---|---|---|---|---|
| 1778097052 | 10° C | - | 1009.1 hPa | 9.65 mm | - | - | - |
| 1778094949 | 10° C | - | 1009.3 hPa | 9.65 mm | - | - | - |
| 1778094348 | 10.56° C | - | 1010.5 hPa | 9.65 mm | - | - | - |
| 1778093747 | 10° C | - | 1009.9 hPa | 9.65 mm | - | - | - |
| 1778093146 | 9.44° C | - | 1007.2 hPa | 9.65 mm | - | - | - |
| 1778092545 | 10° C | - | 1010.7 hPa | 9.65 mm | - | - | - |
| 1778091944 | 10.56° C | - | 1008.8 hPa | 9.65 mm | - | - | - |
| 1778091343 | 10° C | - | 1011 hPa | 9.65 mm | - | - | - |
| 1778087437 | 11.11° C | - | 1015.9 hPa | 9.65 mm | - | - | - |
| 1778086836 | 11.67° C | - | 1002.9 hPa | 9.65 mm | - | - | - |
| 1778085633 | 11.67° C | - | 1006.8 hPa | 9.4 mm | - | - | - |
| 1778085032 | 10° C | - | 1020.1 hPa | 9.4 mm | - | - | - |
| 1778083818 | 9.44° C | - | 1002.7 hPa | 9.4 mm | - | - | - |
| 1778083217 | 10° C | - | 1009 hPa | 9.4 mm | - | - | - |
| 1778082015 | 9.44° C | - | 1009.5 hPa | 9.4 mm | - | - | - |
| 1778079308 | 9.44° C | - | 1008.8 hPa | 9.4 mm | - | - | - |
| 1778078404 | 10° C | - | 1008.4 hPa | 9.4 mm | - | - | - |
| 1778077803 | 10° C | - | 1006.7 hPa | 9.4 mm | - | - | - |
| 1778075996 | 9.44° C | - | 1012.5 hPa | 9.14 mm | - | - | - |
| 1778075395 | 8.89° C | - | 1000.1 hPa | 9.14 mm | - | - | - |
| 1778074492 | 9.44° C | - | 1009.1 hPa | 8.38 mm | - | - | - |
| 1778073891 | 10° C | - | 1010.1 hPa | 7.87 mm | - | - | - |
| 1778073290 | 10.56° C | - | 1005.8 hPa | 7.37 mm | - | - | - |
| 1778072387 | 8.33° C | - | 1017.3 hPa | 6.35 mm | - | - | - |
| 1778071185 | 10° C | - | 1004.4 hPa | 3.56 mm | - | - | - |
* Rain since midnight (hover to see other rain measurements)
** Current wind speed in m/s (hover to see current wind gust speed)